Regional Weather Roundup
Issued by NWS Mobile, AL

Home | Current Version | Previous Version | Text Only | Print | Product List | Glossary On
Versions: 1 2 3 4 5 6 7 8 9 10 11 12 13 14 15 16 17 18 19 20 21 22 23 24 25 26 27 28 29 30 31 32 33 34 35 36 37 38 39 40 41 42 43 44 45 46 47 48 49 50
000
ASUS44 KMOB 292313
RWRMOB
REGIONAL WEATHER ROUNDUP
NATIONAL WEATHER SERVICE MOBILE AL
600 PM CDT WED MAR 29 2017

NOTE: "FAIR" INDICATES FEW OR NO CLOUDS BELOW 12,000 FEET WITH NO
      SIGNIFICANT WEATHER AND/OR OBSTRUCTIONS TO VISIBILITY.

  * THESE STATIONS ARE PART OF THE UNIVERSITY OF SOUTH ALABAMA
    MESONET AND ARE NOT UNDER NWS OR FAA QUALITY CONTROL.

ALZ061>064-300000-
COASTAL ALABAMA

CITY           SKY/WX    TMP DP  RH WIND       PRES   REMARKS
MOBILE REG APT MOSUNNY   75  64  68 SE14      29.96R
BROOKLEY FIELD SUNNY     76  67  73 S12       29.97R
USA CAMPUS*      N/A     73  64  73 E5        29.96R
DOG RIVER*       N/A     73  66  78 SE12      30.70R


CITY           SKY/WX    TMP DP  RH WIND       PRES   REMARKS
GULF SHORES    MOSUNNY   73  68  82 SE16      29.97S

$$

ALZ051>060-300000-
INTERIOR SOUTHWEST AND SOUTH CENTRAL ALABAMA

CITY           SKY/WX    TMP DP  RH WIND       PRES   REMARKS
GREENVILLE     SUNNY     83  51  33 S6        29.93F
EVERGREEN      SUNNY     82  55  39 S12       29.95S
ATMORE*        NOT AVBL
ANDALUSIA/OPP  SUNNY     84  53  34 VRB6      29.96S
ANDALUSIA*       N/A     81  54  39 S8        29.97S
FLORALA APT    SUNNY     78  53  41 S9        29.99F
FLORALA*         N/A     79  54  41 E6        30.67S

$$

FLZ001>006-300000-
WESTERN FLORIDA PANHANDLE

CITY           SKY/WX    TMP DP  RH WIND       PRES   REMARKS
PENSACOLA      MOSUNNY   75  66  73 SE12      29.97F
NAS PENSACOLA  PTSUNNY   74  65  73 SE13      29.97F
MILTON         MOSUNNY   75  63  66 S13       29.97F
WHTNG S FIELD  MOSUNNY   78  64  61 S12       29.97F


CITY           SKY/WX    TMP DP  RH WIND       PRES   REMARKS
JAY*             N/A     77  59  53 S15       29.96S
DUKE FIELD     MOSUNNY   76  61  59 S12       29.98F
CRESTVIEW      SUNNY     78  59  51 S10G17    29.99F
VALPARAISO     MOSUNNY   75  65  71 S7        29.99F
DESTIN         SUNNY     75  72  90 SE9       29.99F

$$

MSZ076-079-300000-
INTERIOR SOUTHEAST MISSISSIPPI

CITY           SKY/WX    TMP DP  RH WIND       PRES   REMARKS
LEAKESVILLE*     N/A     77  59  53 S3        29.92R
AGRICOLA*        N/A     77  63  61 S2        29.94R

$$

MARINE OBSERVATIONS

STATION/POSITION TIME  TEMP    WIND        PRES    WAVE
                       AIR SEA DIR/SP/G            HT/PER
                 (UTC) (F)     (DEG/KT/KT) (MB)    (FT/S)
PASCAGOULA       2236   74     130/ 10/ 15 1014.0S
PETIT BOIS ISLND 2236   73     130/ 13/ 16 1014.8S
GRAND BAY        2145   74     140/ 14     1015.0F
KATRINA CUT      2200          130/ 18     1013.5
CEDAR POINT      2230   74     140/ 15     1014.2F
E DAUPHIN ISLAND 2200   72     120/ 15/ 16 1014.2F
MIDDLE BAY LIGHT 2200   73     130/ 16     1014.2
USCG MOBILE BAY  2236   74 74  170/ 10/ 14 1014.9S
STATE DOCKS      2236   73 69              1014.3F
MEAHER PARK      2230   75     180/  9     1014.2F
WEEKS BAY        2145   78                   N/A
FORT MORGAN      2236   72     130/ 19/ 20   N/A
12 S ORANGE BCH  2150   72 73  120/ 12/ 14 1014.7F   3/ 6
PENSACOLA BAY    2236   76 74  140/  3/  6 1015.2F
64 S DAUPHIN ISL 2250   73 73  120/ 14/ 16 1014.1F   4/ 6
67 S FORT MORGAN 2230   72     120/ 16     1014.2F

$$

SELECTED LOCATIONS ACROSS THE REGION

CITY           SKY/WX    TMP DP  RH WIND       PRES   REMARKS
NEW ORLEANS    CLOUDY    77  67  71 S13       29.90R
GULFPORT       PTSUNNY   76  69  79 SE14      29.94R
PASCAGOULA AP  MOSUNNY   74  65  73 SE12      29.95S
PASCAGOULA*    NOT AVBL
HATTIESBURG    MOSUNNY   80  62  54 S9        29.91R
LAUREL         PTSUNNY   79  61  53 S9        29.91R
MERIDIAN       MOSUNNY   81  60  48 S8        29.89S
JACKSON        PTSUNNY   80  60  50 S9        29.85S
MONTGOMERY     SUNNY     84  55  36 SE9       29.93F
TROY           SUNNY     82  55  39 SW7       29.96F
ASHFORD*         N/A     81  54  39 S8        29.97S
DOTHAN         MOSUNNY   82  55  39 S7        30.01F
PANAMA CITY    SUNNY     77  57  50 SE8       30.00F

$$




USA.gov is the U.S. government's official web portal to all federal, state and local government web resources and services.